PWSweather.com
Personal Weather Stations
Station Observations
KOHAVON11
Long Road Station, Avon, OH 44011

Long Road StationAvon, OH 44011

Lat: 41.437, Lon: -82.0477

Elevation: 686

Station Type: Davis Vantage Pro2

http://www.avon-weather.com

Latest ConditionsUpdated 6:23:06 AM EDT Wednesday, Apr 23, 2014
Currently Today's Max Today's Min Today's Average
Temperature 39.5°F4.2°C 43.5°F6.4°C 39.5°F4.2°C 40.8°F4.9°C
Dew Point 30.8°F-0.7°C 33.8°F1.0°C 30.8°F-0.7°C 32.5°F0.3°C
Winds 6.0 mph 9.7 kmh 14.0 mph NNW22.5 kmh NNW - 4.8 mph 7.7 kmh
Wind Gusts 16.0 mph25.7 kmh 20.0 mph32.2 kmh - -
Humidity 71% 75% 68% 72%
Pressure 29.97 in1014.9 mb 29.97 in1014.9 mb 29.89 in1012.2 mb -
Hour Temp Dew Point Humidity Winds Wind Gusts Pressure Precip Precip Rate Daily Precip Total
06:23 AM 39.5°F4.2°C 30.8°F-0.7°C 71% 6.0 mph 9.7 kmh 16.0 mph25.7 kmh 29.97 in1014.9 mb 0.00 in0.0 mm 0.00 in/hr0.0 mm/hr 0.00 in0.0 mm
06:18 AM 39.5°F4.2°C 31.1°F-0.5°C 72% 1.0 mph N1.6 kmh N 16.0 mph25.7 kmh 29.97 in1014.9 mb 0.00 in0.0 mm 0.00 in/hr0.0 mm/hr 0.00 in0.0 mm
06:13 AM 39.6°F4.2°C 31.2°F-0.4°C 72% 4.0 mph NW6.4 kmh NW 11.0 mph17.7 kmh 29.97 in1014.9 mb 0.00 in0.0 mm 0.00 in/hr0.0 mm/hr 0.00 in0.0 mm
06:08 AM 39.6°F4.2°C 31.2°F-0.4°C 72% 2.0 mph N3.2 kmh N 11.0 mph17.7 kmh 29.96 in1014.6 mb 0.00 in0.0 mm 0.00 in/hr0.0 mm/hr 0.00 in0.0 mm
06:03 AM 39.6°F4.2°C 30.9°F-0.6°C 71% 8.0 mph NW12.9 kmh NW 13.0 mph20.9 kmh 29.96 in1014.6 mb 0.00 in0.0 mm 0.00 in/hr0.0 mm/hr 0.00 in0.0 mm
05:58 AM 39.7°F4.3°C 31.3°F-0.4°C 72% 5.0 mph NW8.0 kmh NW 13.0 mph20.9 kmh 29.96 in1014.6 mb 0.00 in0.0 mm 0.00 in/hr0.0 mm/hr 0.00 in0.0 mm
05:53 AM 39.7°F4.3°C 31.7°F-0.2°C 73% 1.0 mph NW1.6 kmh NW 15.0 mph24.1 kmh 29.96 in1014.6 mb 0.00 in0.0 mm 0.00 in/hr0.0 mm/hr 0.00 in0.0 mm
05:48 AM 39.7°F4.3°C 31.7°F-0.2°C 73% 2.0 mph NNW3.2 kmh NNW 15.0 mph24.1 kmh 29.95 in1014.2 mb 0.00 in0.0 mm 0.00 in/hr0.0 mm/hr 0.00 in0.0 mm
05:43 AM 39.7°F4.3°C 31.7°F-0.2°C 73% 5.0 mph NW8.0 kmh NW 16.0 mph25.7 kmh 29.95 in1014.2 mb 0.00 in0.0 mm 0.00 in/hr0.0 mm/hr 0.00 in0.0 mm
05:38 AM 39.7°F4.3°C 31.7°F-0.2°C 73% 6.0 mph NW9.7 kmh NW 16.0 mph25.7 kmh 29.95 in1014.2 mb 0.00 in0.0 mm 0.00 in/hr0.0 mm/hr 0.00 in0.0 mm
05:33 AM 39.7°F4.3°C 32.0°F0.0°C 74% 5.0 mph NW8.0 kmh NW 16.0 mph25.7 kmh 29.95 in1014.2 mb 0.00 in0.0 mm 0.00 in/hr0.0 mm/hr 0.00 in0.0 mm
05:28 AM 39.7°F4.3°C 31.7°F-0.2°C 73% 6.0 mph NW9.7 kmh NW 16.0 mph25.7 kmh 29.95 in1014.2 mb 0.00 in0.0 mm 0.00 in/hr0.0 mm/hr 0.00 in0.0 mm
05:23 AM 39.7°F4.3°C 31.7°F-0.2°C 73% 5.0 mph NW8.0 kmh NW 15.0 mph24.1 kmh 29.95 in1014.2 mb 0.00 in0.0 mm 0.00 in/hr0.0 mm/hr 0.00 in0.0 mm
05:18 AM 39.7°F4.3°C 31.7°F-0.2°C 73% 10.0 mph WNW16.1 kmh WNW 15.0 mph24.1 kmh 29.95 in1014.2 mb 0.00 in0.0 mm 0.00 in/hr0.0 mm/hr 0.00 in0.0 mm
05:13 AM 39.7°F4.3°C 31.7°F-0.2°C 73% 7.0 mph NW11.3 kmh NW 15.0 mph24.1 kmh 29.94 in1013.9 mb 0.00 in0.0 mm 0.00 in/hr0.0 mm/hr 0.00 in0.0 mm
05:08 AM 39.7°F4.3°C 32.0°F0.0°C 74% 3.0 mph N4.8 kmh N 10.0 mph16.1 kmh 29.94 in1013.9 mb 0.00 in0.0 mm 0.00 in/hr0.0 mm/hr 0.00 in0.0 mm
05:03 AM 39.8°F4.3°C 32.1°F0.1°C 74% 3.0 mph NW4.8 kmh NW 10.0 mph16.1 kmh 29.94 in1013.9 mb 0.00 in0.0 mm 0.00 in/hr0.0 mm/hr 0.00 in0.0 mm
04:58 AM 39.7°F4.3°C 31.7°F-0.2°C 73% 5.0 mph NW8.0 kmh NW 10.0 mph16.1 kmh 29.94 in1013.9 mb 0.00 in0.0 mm 0.00 in/hr0.0 mm/hr 0.00 in0.0 mm
04:53 AM 39.7°F4.3°C 31.7°F-0.2°C 73% 6.0 mph NW9.7 kmh NW 16.0 mph25.7 kmh 29.94 in1013.9 mb 0.00 in0.0 mm 0.00 in/hr0.0 mm/hr 0.00 in0.0 mm
04:48 AM 39.8°F4.3°C 31.8°F-0.1°C 73% 3.0 mph NNW4.8 kmh NNW 16.0 mph25.7 kmh 29.93 in1013.5 mb 0.00 in0.0 mm 0.00 in/hr0.0 mm/hr 0.00 in0.0 mm
04:43 AM 39.8°F4.3°C 31.8°F-0.1°C 73% 7.0 mph NW11.3 kmh NW 16.0 mph25.7 kmh 29.93 in1013.5 mb 0.00 in0.0 mm 0.00 in/hr0.0 mm/hr 0.00 in0.0 mm
04:38 AM 39.8°F4.3°C 31.8°F-0.1°C 73% 3.0 mph NNE4.8 kmh NNE 16.0 mph25.7 kmh 29.93 in1013.5 mb 0.00 in0.0 mm 0.00 in/hr0.0 mm/hr 0.00 in0.0 mm
04:33 AM 39.8°F4.3°C 32.1°F0.1°C 74% 14.0 mph NNW22.5 kmh NNW 15.0 mph24.1 kmh 29.93 in1013.5 mb 0.00 in0.0 mm 0.00 in/hr0.0 mm/hr 0.00 in0.0 mm
04:28 AM 39.8°F4.3°C 32.1°F0.1°C 74% 3.0 mph NW4.8 kmh NW 15.0 mph24.1 kmh 29.93 in1013.5 mb 0.00 in0.0 mm 0.00 in/hr0.0 mm/hr 0.00 in0.0 mm
04:23 AM 39.7°F4.3°C 32.0°F0.0°C 74% Calm Calm 15.0 mph24.1 kmh 29.93 in1013.5 mb 0.00 in0.0 mm 0.00 in/hr0.0 mm/hr 0.00 in0.0 mm
04:18 AM 39.7°F4.3°C 32.0°F0.0°C 74% 6.0 mph NW9.7 kmh NW 15.0 mph24.1 kmh 29.92 in1013.2 mb 0.00 in0.0 mm 0.00 in/hr0.0 mm/hr 0.00 in0.0 mm
04:13 AM 39.7°F4.3°C 32.0°F0.0°C 74% 6.0 mph NW9.7 kmh NW 12.0 mph19.3 kmh 29.92 in1013.2 mb 0.00 in0.0 mm 0.00 in/hr0.0 mm/hr 0.00 in0.0 mm
04:08 AM 39.7°F4.3°C 32.3°F0.2°C 75% 4.0 mph NNW6.4 kmh NNW 12.0 mph19.3 kmh 29.92 in1013.2 mb 0.00 in0.0 mm 0.00 in/hr0.0 mm/hr 0.00 in0.0 mm
04:03 AM 39.8°F4.3°C 32.4°F0.2°C 75% 3.0 mph NNW4.8 kmh NNW 11.0 mph17.7 kmh 29.92 in1013.2 mb 0.00 in0.0 mm 0.00 in/hr0.0 mm/hr 0.00 in0.0 mm
03:58 AM 39.8°F4.3°C 32.4°F0.2°C 75% 8.0 mph WNW12.9 kmh WNW 12.0 mph19.3 kmh 29.91 in1012.9 mb 0.00 in0.0 mm 0.00 in/hr0.0 mm/hr 0.00 in0.0 mm
03:53 AM 39.9°F4.4°C 32.2°F0.1°C 74% 2.0 mph 3.2 kmh 12.0 mph19.3 kmh 29.91 in1012.9 mb 0.00 in0.0 mm 0.00 in/hr0.0 mm/hr 0.00 in0.0 mm
03:48 AM 40.1°F4.5°C 32.4°F0.2°C 74% 3.0 mph N4.8 kmh N 12.0 mph19.3 kmh 29.91 in1012.9 mb 0.00 in0.0 mm 0.00 in/hr0.0 mm/hr 0.00 in0.0 mm
03:43 AM 40.2°F4.6°C 32.5°F0.3°C 74% 5.0 mph NW8.0 kmh NW 12.0 mph19.3 kmh 29.91 in1012.9 mb 0.00 in0.0 mm 0.00 in/hr0.0 mm/hr 0.00 in0.0 mm
03:38 AM 40.4°F4.7°C 32.0°F0.0°C 72% 4.0 mph NW6.4 kmh NW 19.0 mph30.6 kmh 29.91 in1012.9 mb 0.00 in0.0 mm 0.00 in/hr0.0 mm/hr 0.00 in0.0 mm
03:33 AM 40.4°F4.7°C 32.0°F0.0°C 72% 4.0 mph N6.4 kmh N 19.0 mph30.6 kmh 29.91 in1012.9 mb 0.00 in0.0 mm 0.00 in/hr0.0 mm/hr 0.00 in0.0 mm
03:28 AM 40.5°F4.7°C 31.7°F-0.2°C 71% 5.0 mph NW8.0 kmh NW 19.0 mph30.6 kmh 29.91 in1012.9 mb 0.00 in0.0 mm 0.00 in/hr0.0 mm/hr 0.00 in0.0 mm
03:23 AM 40.7°F4.8°C 31.9°F-0.1°C 71% 5.0 mph NW8.0 kmh NW 19.0 mph30.6 kmh 29.91 in1012.9 mb 0.00 in0.0 mm 0.00 in/hr0.0 mm/hr 0.00 in0.0 mm
03:18 AM 40.7°F4.8°C 32.3°F0.2°C 72% 6.0 mph NW9.7 kmh NW 14.0 mph22.5 kmh 29.91 in1012.9 mb 0.00 in0.0 mm 0.00 in/hr0.0 mm/hr 0.00 in0.0 mm
03:13 AM 40.7°F4.8°C 32.3°F0.2°C 72% 5.0 mph NW8.0 kmh NW 14.0 mph22.5 kmh 29.91 in1012.9 mb 0.00 in0.0 mm 0.00 in/hr0.0 mm/hr 0.00 in0.0 mm
03:08 AM 40.8°F4.9°C 32.4°F0.2°C 72% 5.0 mph NNE8.0 kmh NNE 14.0 mph22.5 kmh 29.91 in1012.9 mb 0.00 in0.0 mm 0.00 in/hr0.0 mm/hr 0.00 in0.0 mm
03:03 AM 40.9°F4.9°C 32.8°F0.4°C 73% 3.0 mph NNW4.8 kmh NNW 14.0 mph22.5 kmh 29.91 in1012.9 mb 0.00 in0.0 mm 0.00 in/hr0.0 mm/hr 0.00 in0.0 mm
02:58 AM 41.0°F5.0°C 32.9°F0.5°C 73% 5.0 mph N8.0 kmh N 12.0 mph19.3 kmh 29.91 in1012.9 mb 0.00 in0.0 mm 0.00 in/hr0.0 mm/hr 0.00 in0.0 mm
02:53 AM 41.0°F5.0°C 33.3°F0.7°C 74% 9.0 mph WNW14.5 kmh WNW 12.0 mph19.3 kmh 29.91 in1012.9 mb 0.00 in0.0 mm 0.00 in/hr0.0 mm/hr 0.00 in0.0 mm
02:48 AM 41.0°F5.0°C 33.3°F0.7°C 74% 8.0 mph W12.9 kmh W 13.0 mph20.9 kmh 29.91 in1012.9 mb 0.00 in0.0 mm 0.00 in/hr0.0 mm/hr 0.00 in0.0 mm
02:43 AM 41.1°F5.1°C 33.4°F0.8°C 74% 4.0 mph NW6.4 kmh NW 13.0 mph20.9 kmh 29.91 in1012.9 mb 0.00 in0.0 mm 0.00 in/hr0.0 mm/hr 0.00 in0.0 mm
02:38 AM 41.2°F5.1°C 33.4°F0.8°C 74% 7.0 mph N11.3 kmh N 13.0 mph20.9 kmh 29.91 in1012.9 mb 0.00 in0.0 mm 0.00 in/hr0.0 mm/hr 0.00 in0.0 mm
02:33 AM 41.2°F5.1°C 33.4°F0.8°C 74% 4.0 mph NNW6.4 kmh NNW 13.0 mph20.9 kmh 29.91 in1012.9 mb 0.00 in0.0 mm 0.00 in/hr0.0 mm/hr 0.00 in0.0 mm
02:28 AM 41.2°F5.1°C 33.4°F0.8°C 74% 5.0 mph NNW8.0 kmh NNW 13.0 mph20.9 kmh 29.91 in1012.9 mb 0.00 in0.0 mm 0.00 in/hr0.0 mm/hr 0.00 in0.0 mm
02:23 AM 41.3°F5.2°C 33.2°F0.7°C 73% 4.0 mph N6.4 kmh N 13.0 mph20.9 kmh 29.91 in1012.9 mb 0.00 in0.0 mm 0.00 in/hr0.0 mm/hr 0.00 in0.0 mm
02:18 AM 41.3°F5.2°C 33.2°F0.7°C 73% 5.0 mph NW8.0 kmh NW 11.0 mph17.7 kmh 29.91 in1012.9 mb 0.00 in0.0 mm 0.00 in/hr0.0 mm/hr 0.00 in0.0 mm
02:13 AM 41.4°F5.2°C 32.9°F0.5°C 72% 7.0 mph NNW11.3 kmh NNW 13.0 mph20.9 kmh 29.91 in1012.9 mb 0.00 in0.0 mm 0.00 in/hr0.0 mm/hr 0.00 in0.0 mm
02:08 AM 41.4°F5.2°C 32.6°F0.3°C 71% 4.0 mph NW6.4 kmh NW 13.0 mph20.9 kmh 29.91 in1012.9 mb 0.00 in0.0 mm 0.00 in/hr0.0 mm/hr 0.00 in0.0 mm
02:03 AM 41.5°F5.3°C 32.7°F0.4°C 71% 4.0 mph NNW6.4 kmh NNW 14.0 mph22.5 kmh 29.91 in1012.9 mb 0.00 in0.0 mm 0.00 in/hr0.0 mm/hr 0.00 in0.0 mm
01:58 AM 41.6°F5.3°C 33.1°F0.6°C 72% 4.0 mph NNW6.4 kmh NNW 14.0 mph22.5 kmh 29.91 in1012.9 mb 0.00 in0.0 mm 0.00 in/hr0.0 mm/hr 0.00 in0.0 mm
01:53 AM 41.6°F5.3°C 33.1°F0.6°C 72% 4.0 mph 6.4 kmh 14.0 mph22.5 kmh 29.90 in1012.5 mb 0.00 in0.0 mm 0.00 in/hr0.0 mm/hr 0.00 in0.0 mm
01:48 AM 41.6°F5.3°C 33.1°F0.6°C 72% 4.0 mph N6.4 kmh N 14.0 mph22.5 kmh 29.91 in1012.9 mb 0.00 in0.0 mm 0.00 in/hr0.0 mm/hr 0.00 in0.0 mm
01:43 AM 41.7°F5.4°C 33.2°F0.7°C 72% 4.0 mph NNW6.4 kmh NNW 12.0 mph19.3 kmh 29.90 in1012.5 mb 0.00 in0.0 mm 0.00 in/hr0.0 mm/hr 0.00 in0.0 mm
01:38 AM 41.7°F5.4°C 33.2°F0.7°C 72% 3.0 mph NW4.8 kmh NW 12.0 mph19.3 kmh 29.91 in1012.9 mb 0.00 in0.0 mm 0.00 in/hr0.0 mm/hr 0.00 in0.0 mm
01:33 AM 41.8°F5.4°C 33.3°F0.7°C 72% 6.0 mph WNW9.7 kmh WNW 12.0 mph19.3 kmh 29.91 in1012.9 mb 0.00 in0.0 mm 0.00 in/hr0.0 mm/hr 0.00 in0.0 mm
01:28 AM 41.8°F5.4°C 33.0°F0.6°C 71% 3.0 mph NW4.8 kmh NW 12.0 mph19.3 kmh 29.91 in1012.9 mb 0.00 in0.0 mm 0.00 in/hr0.0 mm/hr 0.00 in0.0 mm
01:23 AM 41.9°F5.5°C 33.1°F0.6°C 71% 3.0 mph NW4.8 kmh NW 11.0 mph17.7 kmh 29.91 in1012.9 mb 0.00 in0.0 mm 0.00 in/hr0.0 mm/hr 0.00 in0.0 mm
01:18 AM 41.9°F5.5°C 33.1°F0.6°C 71% 3.0 mph NNW4.8 kmh NNW 11.0 mph17.7 kmh 29.91 in1012.9 mb 0.00 in0.0 mm 0.00 in/hr0.0 mm/hr 0.00 in0.0 mm
01:13 AM 41.9°F5.5°C 33.1°F0.6°C 71% 8.0 mph NNW12.9 kmh NNW 13.0 mph20.9 kmh 29.90 in1012.5 mb 0.00 in0.0 mm 0.00 in/hr0.0 mm/hr 0.00 in0.0 mm
01:08 AM 41.9°F5.5°C 33.1°F0.6°C 71% 6.0 mph NW9.7 kmh NW 13.0 mph20.9 kmh 29.90 in1012.5 mb 0.00 in0.0 mm 0.00 in/hr0.0 mm/hr 0.00 in0.0 mm
01:03 AM 42.0°F5.6°C 32.8°F0.4°C 70% 3.0 mph NW4.8 kmh NW 13.0 mph20.9 kmh 29.90 in1012.5 mb 0.00 in0.0 mm 0.00 in/hr0.0 mm/hr 0.00 in0.0 mm
12:58 AM 42.1°F5.6°C 32.9°F0.5°C 70% 4.0 mph NW6.4 kmh NW 13.0 mph20.9 kmh 29.90 in1012.5 mb 0.00 in0.0 mm 0.00 in/hr0.0 mm/hr 0.00 in0.0 mm
12:53 AM 42.2°F5.7°C 33.0°F0.6°C 70% 6.0 mph N9.7 kmh N 13.0 mph20.9 kmh 29.90 in1012.5 mb 0.00 in0.0 mm 0.00 in/hr0.0 mm/hr 0.00 in0.0 mm
12:48 AM 42.3°F5.7°C 33.4°F0.8°C 71% 7.0 mph NNW11.3 kmh NNW 13.0 mph20.9 kmh 29.90 in1012.5 mb 0.00 in0.0 mm 0.00 in/hr0.0 mm/hr 0.00 in0.0 mm
12:43 AM 42.4°F5.8°C 33.2°F0.7°C 70% 7.0 mph NNW11.3 kmh NNW 13.0 mph20.9 kmh 29.90 in1012.5 mb 0.00 in0.0 mm 0.00 in/hr0.0 mm/hr 0.00 in0.0 mm
12:38 AM 42.5°F5.8°C 33.3°F0.7°C 70% 4.0 mph N6.4 kmh N 13.0 mph20.9 kmh 29.89 in1012.2 mb 0.00 in0.0 mm 0.00 in/hr0.0 mm/hr 0.00 in0.0 mm
12:33 AM 42.5°F5.8°C 33.3°F0.7°C 70% 7.0 mph WNW11.3 kmh WNW 12.0 mph19.3 kmh 29.90 in1012.5 mb 0.00 in0.0 mm 0.00 in/hr0.0 mm/hr 0.00 in0.0 mm
12:28 AM 42.6°F5.9°C 33.0°F0.6°C 69% 7.0 mph WNW11.3 kmh WNW 12.0 mph19.3 kmh 29.89 in1012.2 mb 0.00 in0.0 mm 0.00 in/hr0.0 mm/hr 0.00 in0.0 mm
12:23 AM 42.7°F5.9°C 33.1°F0.6°C 69% Calm Calm 12.0 mph19.3 kmh 29.89 in1012.2 mb 0.00 in0.0 mm 0.00 in/hr0.0 mm/hr 0.00 in0.0 mm
12:18 AM 42.9°F6.1°C 33.7°F0.9°C 70% 3.0 mph NNW4.8 kmh NNW 10.0 mph16.1 kmh 29.89 in1012.2 mb 0.00 in0.0 mm 0.00 in/hr0.0 mm/hr 0.00 in0.0 mm
12:13 AM 43.1°F6.2°C 33.8°F1.0°C 70% 7.0 mph NNW11.3 kmh NNW 20.0 mph32.2 kmh 29.89 in1012.2 mb 0.00 in0.0 mm 0.00 in/hr0.0 mm/hr 0.00 in0.0 mm
12:08 AM 43.3°F6.3°C 33.7°F0.9°C 69% 3.0 mph NNW4.8 kmh NNW 20.0 mph32.2 kmh 29.89 in1012.2 mb 0.00 in0.0 mm 0.00 in/hr0.0 mm/hr 0.00 in0.0 mm
12:03 AM 43.5°F6.4°C 33.5°F0.8°C 68% 5.0 mph NNW8.0 kmh NNW 20.0 mph32.2 kmh 29.89 in1012.2 mb 0.00 in0.0 mm 0.00 in/hr0.0 mm/hr 0.00 in0.0 mm